Weather History for Danbury, CT

Change the Weather History Date:

Thursday, October 4, 2012

  Actual Average Record
Temperature  
Mean Temperature 66 °F -  
Max Temperature 70 °F 67 °F 86 °F (2007)
Min Temperature 62 °F 45 °F 29 °F (1974)
Cooling Degree Days 1    
Growing Degree Days 16 (Base 50)    
Moisture  
Dew Point 65 °F    
Average Humidity 94    
Maximum Humidity 100    
Minimum Humidity 87    
Precipitation  
Precipitation 0.24 in - - ()
Sea Level Pressure  
Sea Level Pressure 30.10 in    
Wind  
Wind Speed 1 mph (SSE)    
Max Wind Speed 8 mph    
Max Gust Speed -    
Visibility 3 miles    
Events Fog , Rain    
Averages and records for this station are not official NWS values.
T = Trace of Precipitation, MM = Missing Value Source: NWS Daily Summary

Daily Weather History Graph

Daily Weather History Graph

Search for Another Location

Airport:

Trip Planner

Search our weather history database for the weather conditions in past years. The results will help you decide how hot, cold, wet, or windy it might be!

Date:

Astronomy

Oct. 04, 2012 Rise Set
Actual Time 6:54 AM EDT 6:29 PM EDT
Civil Twilight 6:26 AM EDT 6:57 PM EDT
Nautical Twilight 5:54 AM EDT 7:29 PM EDT
Astronomical Twilight 5:22 AM EDT 8:01 PM EDT
Moon 9:00 PM EDT (10/4) 11:11 AM EDT (10/4)
Length of Visible Light 12h 30m
Length of Day
11h 35m
Waning Gibbous, 82% of the Moon is Illuminated
Oct 4
Waning Gibbous
Oct 8
Last Quarter
Oct 15
New
Oct 21
First Quarter
Oct 29
Full

Hourly Weather History & Observations

Time (EDT) Temp. Dew Point Humidity Pressure Visibility Wind Dir Wind Speed Gust Speed Precip Events Conditions
12:00 AM 66.2 °F 64.4 °F 94% 30.13 in 2.5 mi SE 3.5 mph - N/A   Overcast
12:08 AM 66.2 °F 64.4 °F 94% 30.14 in 5.0 mi Calm Calm - N/A   Overcast
12:16 AM 66.2 °F 64.4 °F 94% 30.14 in 7.0 mi Calm Calm - N/A   Overcast
12:53 AM 66.9 °F 64.9 °F 93% 30.13 in 7.0 mi Calm Calm - N/A   Overcast
1:38 AM 66.2 °F 64.4 °F 94% 30.14 in 2.5 mi Calm Calm - N/A   Overcast
1:50 AM 66.2 °F 64.4 °F 94% 30.14 in 1.8 mi Calm Calm - N/A   Overcast
1:51 AM 66.9 °F 64.9 °F 93% 30.13 in 1.8 mi Calm Calm - N/A   Overcast
2:06 AM 66.2 °F 64.4 °F 94% 30.15 in 2.0 mi Calm Calm - 0.01 in   Overcast
2:43 AM 66.2 °F 64.4 °F 94% 30.14 in 3.0 mi Calm Calm - 0.01 in   Overcast
2:53 AM 66.0 °F 64.9 °F 96% 30.13 in 4.0 mi Calm Calm - 0.01 in   Overcast
3:06 AM 66.2 °F 64.4 °F 94% 30.13 in 4.0 mi Calm Calm - N/A   Overcast
3:30 AM 66.2 °F 64.4 °F 94% 30.14 in 4.0 mi Calm Calm - N/A   Overcast
3:53 AM 66.9 °F 64.9 °F 93% 30.13 in 2.0 mi Calm Calm - N/A   Overcast
4:00 AM 66.2 °F 64.4 °F 94% 30.14 in 1.0 mi Calm Calm - N/A   Overcast
4:14 AM 66.2 °F 64.4 °F 94% 30.14 in 1.8 mi Calm Calm - N/A   Overcast
4:23 AM 66.2 °F 64.4 °F 94% 30.14 in 0.8 mi Calm Calm - N/A   Mist
4:53 AM 66.9 °F 64.9 °F 93% 30.13 in 0.2 mi Calm Calm - N/A Fog Fog
5:53 AM 66.0 °F 64.9 °F 96% 30.14 in 0.5 mi Calm Calm - N/A Fog Fog
6:43 AM 66.2 °F 64.4 °F 94% 30.14 in 1.2 mi Calm Calm - N/A   Overcast
6:53 AM 66.0 °F 64.9 °F 96% 30.14 in 1.2 mi Calm Calm - N/A   Overcast
7:53 AM 66.9 °F 66.0 °F 97% 30.15 in 1.5 mi Calm Calm - 0.00 in   Overcast
8:26 AM 66.2 °F 66.2 °F 100% 30.15 in 1.0 mi Calm Calm - N/A   Overcast
8:53 AM 66.9 °F 66.0 °F 97% 30.14 in 0.5 mi Calm Calm - N/A Fog Fog
9:13 AM 66.2 °F 66.2 °F 100% 30.15 in 1.2 mi Calm Calm - N/A   Overcast
9:21 AM 66.2 °F 66.2 °F 100% 30.15 in 3.0 mi Calm Calm - N/A   Overcast
9:25 AM 68.0 °F 66.2 °F 94% 30.15 in 1.5 mi Calm Calm - N/A   Overcast
9:53 AM 68.0 °F 66.0 °F 93% 30.14 in 2.0 mi Calm Calm - 0.00 in Rain Light Rain
10:29 AM 69.8 °F 66.2 °F 88% 30.15 in 2.0 mi SE 3.5 mph - 0.00 in   Overcast
11:53 AM 70.0 °F 66.0 °F 87% 30.14 in 10.0 mi Calm Calm - N/A   Overcast
12:53 PM 70.0 °F 66.9 °F 90% 30.09 in 8.0 mi East 8.1 mph - 0.01 in   Overcast
1:53 PM 70.0 °F 66.0 °F 87% 30.09 in 9.0 mi Calm Calm - 0.00 in Rain Light Rain
2:53 PM 69.1 °F 66.9 °F 93% 30.09 in 6.0 mi SSE 3.5 mph - 0.00 in   Overcast
3:43 PM 69.8 °F 66.2 °F 88% 30.09 in 2.5 mi South 6.9 mph - N/A   Overcast
3:53 PM 69.1 °F 66.0 °F 90% 30.07 in 2.5 mi SSE 5.8 mph - N/A   Overcast
4:04 PM 68.0 °F 66.2 °F 94% 30.08 in 3.0 mi South 3.5 mph - N/A   Overcast
4:13 PM 69.8 °F 66.2 °F 88% 30.08 in 4.0 mi SSW 3.5 mph - N/A   Overcast
4:31 PM 69.8 °F 66.2 °F 88% 30.07 in 5.0 mi Calm Calm - N/A   Overcast
4:53 PM 69.1 °F 66.0 °F 90% 30.06 in 5.0 mi Calm Calm - N/A   Overcast
5:43 PM 68.0 °F 66.2 °F 94% 30.06 in 2.0 mi SE 3.5 mph - 0.04 in Rain Rain
5:53 PM 68.0 °F 66.0 °F 93% 30.06 in 2.5 mi Calm Calm - 0.07 in Rain Rain
6:00 PM 68.0 °F 66.2 °F 94% 30.07 in 3.0 mi Calm Calm - 0.03 in Rain Rain
6:07 PM 68.0 °F 66.2 °F 94% 30.07 in 2.0 mi Calm Calm - 0.06 in Rain Rain
6:32 PM 68.0 °F 66.2 °F 94% 30.07 in 1.8 mi Calm Calm - 0.13 in Rain Rain
6:44 PM 68.0 °F 66.2 °F 94% 30.07 in 3.0 mi Calm Calm - 0.15 in Rain Light Rain
6:53 PM 68.0 °F 66.0 °F 93% 30.06 in 8.0 mi Calm Calm - 0.15 in Rain Light Rain
7:21 PM 68.0 °F 66.2 °F 94% 30.06 in 6.0 mi Calm Calm - 0.00 in   Mostly Cloudy
7:32 PM 66.2 °F 64.4 °F 94% 30.05 in 5.0 mi Calm Calm - 0.00 in   Mostly Cloudy
7:50 PM 66.2 °F 64.4 °F 94% 30.06 in 1.5 mi Calm Calm - 0.00 in   Scattered Clouds
7:53 PM 66.0 °F 64.9 °F 96% 30.06 in 0.8 mi Calm Calm - 0.00 in   Mostly Cloudy
8:02 PM 66.2 °F 64.4 °F 94% 30.06 in 1.2 mi Calm Calm - N/A   Scattered Clouds
8:09 PM 66.2 °F 64.4 °F 94% 30.06 in 0.8 mi Calm Calm - N/A   Mostly Cloudy
8:39 PM 66.2 °F 64.4 °F 94% 30.07 in 2.5 mi Calm Calm - N/A   Overcast
8:53 PM 66.0 °F 64.9 °F 96% 30.06 in 4.0 mi Calm Calm - N/A   Overcast
9:23 PM 66.2 °F 64.4 °F 94% 30.08 in 2.5 mi Calm Calm - N/A   Overcast
9:36 PM 66.2 °F 64.4 °F 94% 30.07 in 1.0 mi Calm Calm - N/A   Overcast
9:53 PM 64.9 °F 64.0 °F 97% 30.07 in 0.2 mi Calm Calm - N/A Fog Fog
10:07 PM 64.4 °F 64.4 °F 100% 30.07 in 1.2 mi Calm Calm - N/A   Overcast
10:26 PM 64.4 °F 64.4 °F 100% 30.08 in 3.0 mi Calm Calm - N/A   Overcast
10:32 PM 66.2 °F 64.4 °F 94% 30.08 in 2.5 mi Calm Calm - N/A   Overcast
10:42 PM 64.4 °F 64.4 °F 100% 30.08 in 1.2 mi Calm Calm - N/A   Overcast
10:47 PM 64.4 °F 64.4 °F 100% 30.08 in 0.8 mi Calm Calm - N/A   Overcast
10:53 PM 64.9 °F 64.0 °F 97% 30.08 in 0.5 mi Calm Calm - N/A Fog Fog
11:40 PM 62.6 °F 60.8 °F 94% 30.08 in 1.0 mi Calm Calm - N/A   Overcast
11:43 PM 62.6 °F 60.8 °F 94% 30.08 in 2.0 mi Calm Calm - N/A   Overcast
11:53 PM 63.0 °F 62.1 °F 97% 30.07 in 1.5 mi Calm Calm - N/A   Mostly Cloudy
11:59 PM 62.6 °F 62.6 °F 100% 30.08 in 3.0 mi Calm Calm - N/A   Mostly Cloudy